OBJECT J, 62385

Orbit data source: Space-Track

You're viewing an Uncataloged Satellite

Recently launched and/or uncataloged satellites may have evolving metadata. Metadata may include but not limited to: Owner, Maufacturer, Bus, Motor, and Mission.

OBJECT J, 62385 is a satellite in LEO that was launched on Sat, 21 Dec 2024 UTC via an FALCON 9 launch vehicle from the Air Force Western Test Range (AFWTR). Unknown objects in Earth's orbit typically refer to objects detected orbiting the Earth but have not yet been identified or cataloged. These objects could be anything from previously untracked satellites, spent rocket stages, debris from satellite collisions, or even natural meteoroids temporarily captured by Earth's gravity.

Loading next visibility...
Identifier
62385, 2024-247J
Orbit
LEO
Country
Flag of TBDTBD
Related business
None
Manufacturer
Unknown
Mission
Operational Commercial Communications
Bus & Motor
Unknown
Mass
Unknown
Launch date (UTC)
2024-12-21 (10 months ago)
Launch vehicle
FALCON 9
Launch site
Air Force Western Test Range (AFWTR)
Object type
Unknown
Shape & HBR
Box, 0.0 m
Radar Cross Section
0.004 m², Small (<0.1 m²)

Expand to show TLE details & history
Last TLE update: 17 hours ago

TLE from 17 hours ago
0 OBJECT J
1 62385U 24247J   25298.22270012  .00030950  00000-0  93661-3 0  9990
2 62385  45.0015 123.6326 0008722 246.1698 113.8274 15.33674164 47174
Epoch: 2025-10-25T05:20Z
TLE epoch observation values (Epoch: 2025-10-25T05:20:41.290Z)
Latitude
0.00003°
Longitude
9.60424°
Altitude
467.275 km
Speed
7.633 km/s
True Right ascension
08h 14m 31s
True Declination
0° 00' 00"
Sunlit
Object was in daylight at epoch
Visualization orbit readout
Latitude
Unknown
Longitude
Unknown
Altitude
Unknown
Speed
Unknown
Apparent Right ascension
Unknown
Apparent Declination
Unknown
Sunlit
N/A
Visualization observer readout
Local Sidereal Time
17:13:19
Azimuth
Unknown
Elevation
Unknown
Doppler factor
Unknown
Orbital elements
Apogee altitude
472.445 km
Perigee altitude
460.505 km
Semi-major axis
6,844.612 km
Eccentricity
0.00087
Inclination
45.0015°
RAAN
123.6326°
Arg. of periapsis
246.1698°
True anomaly
113.91879°
Mean anomaly
113.8274°
Eccentric anomaly
113.8731°
Mean motion
3.83283 °/min
Orbital period
93.93 mins
BSTAR
0.00093661
Loading maneuver chart data...
Computing Atmospheric mass density...
Loading historical data...
Loading historical data...
Loading historical data...
Loading historical data...
Loading historical data...
Loading historical data...
Loading historical data...

Documentation

Showing up to 5 results
|